Location: ????????
(55.4000°N, 39.1167°E)
Time: 11:01:38
(UTC+00:00)

H-2A R/B - Pass Details

Date: 19 May 2025
Orbit: 492 x 574 km, 98.2° (Epoch: 14 June)

Event Time Altitude Azimuth Distance (km) Brightness Sun altitude
Exits shadow 22:49:00 19° 215° (SW) 1,366 3.7 -12.3°
Maximum altitude 22:51:07 30° 263° (W) 1,001 3.4 -12.2°
Drops below altitude 10° 22:54:34 10° 326° (NW) 1,803 5.4 -12.0°
Sets 22:56:52 0° 338° (NNW) 2,683 6.6 -11.9°
